contact:dominique.lefevre@mio.osupytheas.fr, maurice.libes@osupytheas.fr, didier.mallarino@osupytheas.fr
Project:EMSO http://www.emso-fr.org/EMSO-France
Depth: 2436.0 m
Title:EMSO Ligure Ouest : Data MII capteur AQUADOPP
Date,Latitude,Longitude,X_East,Y_North,Z_Up,Amplitude_X,Amplitude_Y,Amplitude_Z,Batterie,SoundSpeed,Heading,Pitch,Roll,Pressure,TIS,Speed,Direction
, degrees North, degrees East, m.s-1, m.s-1,m.s-1, 1, 1, 1, Volt, m.s-1, degree, degree, degree, dbar, degree_C, m.s-1, degree
2019-08-13T00:01:44,42.805,6.029,0.032,0.013,0.024,100.0,107.0,98.0,13.3,1505.4,324.5,-0.7,1.8,2470.034,13.35,0.034,67.9
2019-08-13T00:04:45,42.805,6.029,0.017,0.011,0.01,101.0,108.0,98.0,13.4,1505.4,323.6,-0.7,1.8,2470.021,13.35,0.02,57.1
2019-08-13T00:07:46,42.805,6.029,0.011,0.007,-0.003,101.0,108.0,98.0,13.4,1505.4,325.7,-0.7,1.8,2470.013,13.35,0.013,57.5
2019-08-13T00:10:47,42.805,6.029,0.017,0.003,0.051,100.0,107.0,99.0,13.3,1505.4,324.2,-0.7,1.8,2470.006,13.35,0.017,80.0
2019-08-13T00:13:48,42.805,6.029,-0.012,0.018,-0.025,103.0,108.0,96.0,13.3,1505.4,324.4,-0.7,1.8,2470.023,13.35,0.021,326.3
2019-08-13T00:16:49,42.805,6.029,0.039,0.007,-0.03,102.0,107.0,97.0,13.3,1505.4,325.1,-0.7,1.8,2469.987,13.35,0.039,79.8
2019-08-13T00:19:50,42.805,6.029,0.035,0.027,0.024,99.0,108.0,98.0,13.3,1505.4,325.3,-0.7,1.8,2470.035,13.35,0.044,52.3
2019-08-13T00:22:51,42.805,6.029,0.045,0.011,0.009,101.0,109.0,97.0,13.4,1505.4,325.4,-0.7,1.9,2470.021,13.35,0.046,76.3
2019-08-13T00:25:52,42.805,6.029,-0.001,0.011,-0.031,100.0,105.0,99.0,13.3,1505.4,326.3,-0.7,1.8,2469.964,13.35,0.011,354.8
2019-08-13T00:28:53,42.805,6.029,-0.011,0.024,-0.014,101.0,108.0,97.0,13.4,1505.4,325.1,-0.7,1.8,2469.996,13.35,0.026,335.4
2019-08-13T00:31:54,42.805,6.029,-0.007,0.016,-0.028,101.0,108.0,97.0,13.4,1505.4,322.9,-0.8,1.8,2469.979,13.35,0.017,336.4
2019-08-13T00:34:55,42.805,6.029,0.009,0.023,-0.005,102.0,108.0,97.0,13.4,1505.4,324.6,-0.7,1.8,2470.026,13.35,0.024,21.4
2019-08-13T00:37:56,42.805,6.029,-0.01,-0.006,-0.012,100.0,107.0,98.0,13.3,1505.4,324.0,-0.8,1.9,2470.024,13.35,0.011,239.0
2019-08-13T00:40:57,42.805,6.029,-0.006,0.008,-0.052,102.0,107.0,97.0,13.4,1505.4,327.2,-0.7,1.9,2470.003,13.35,0.01,323.1
2019-08-13T00:43:58,42.805,6.029,-0.034,0.02,-0.057,100.0,107.0,98.0,13.4,1505.4,327.0,-0.7,1.8,2470.026,13.35,0.039,300.5
2019-08-13T00:46:59,42.805,6.029,-0.021,-0.015,-0.034,101.0,110.0,98.0,13.3,1505.4,324.7,-0.7,1.8,2469.961,13.35,0.025,234.5
2019-08-13T00:50:00,42.805,6.029,-0.025,0.008,-0.052,101.0,108.0,97.0,13.3,1505.4,325.2,-0.7,1.8,2469.993,13.35,0.026,287.7
2019-08-13T00:53:01,42.805,6.029,-0.03,0.018,-0.061,101.0,107.0,99.0,13.4,1505.4,326.6,-0.7,1.9,2470.003,13.34,0.034,301.0
2019-08-13T00:56:02,42.805,6.029,-0.043,0.018,-0.103,103.0,109.0,97.0,13.4,1505.4,326.3,-0.7,1.8,2470.003,13.34,0.046,292.7
2019-08-13T00:59:03,42.805,6.029,-0.027,-0.007,-0.027,101.0,106.0,97.0,13.4,1505.4,324.8,-0.7,1.8,2470.032,13.35,0.027,255.5
2019-08-13T01:02:04,42.805,6.029,-0.012,-0.015,-0.038,100.0,106.0,98.0,13.4,1505.4,326.9,-0.7,1.8,2470.006,13.35,0.019,218.7
2019-08-13T01:05:05,42.805,6.029,-0.045,0.012,-0.07,100.0,107.0,98.0,13.3,1505.4,326.9,-0.7,1.8,2469.984,13.35,0.046,284.9
2019-08-13T01:08:06,42.805,6.029,-0.055,0.013,-0.063,101.0,107.0,98.0,13.3,1505.4,325.5,-0.7,1.9,2470.055,13.34,0.056,283.3
2019-08-13T01:11:07,42.805,6.029,-0.039,-0.005,-0.083,101.0,108.0,98.0,13.4,1505.4,325.4,-0.7,1.8,2470.039,13.34,0.039,262.7
2019-08-13T01:14:08,42.805,6.029,-0.041,0.022,-0.041,100.0,105.0,99.0,13.4,1505.4,328.1,-0.7,1.8,2469.962,13.34,0.046,298.2
2019-08-13T01:17:09,42.805,6.029,-0.05,0.001,-0.066,102.0,109.0,97.0,13.3,1505.4,324.8,-0.7,1.8,2469.996,13.34,0.05,271.1
2019-08-13T01:20:10,42.805,6.029,-0.066,-0.013,-0.08,100.0,107.0,98.0,13.4,1505.4,323.7,-0.7,1.8,2470.025,13.34,0.067,258.9
2019-08-13T01:23:11,42.805,6.029,-0.027,0.011,-0.074,102.0,107.0,98.0,13.4,1505.4,326.1,-0.7,1.8,2470.001,13.34,0.029,292.2
2019-08-13T01:26:12,42.805,6.029,-0.064,0.005,-0.052,100.0,107.0,97.0,13.3,1505.4,326.4,-0.8,1.8,2470.031,13.34,0.064,274.5
2019-08-13T01:29:13,42.805,6.029,-0.023,0.013,-0.056,102.0,106.0,98.0,13.4,1505.4,326.0,-0.7,1.8,2470.004,13.34,0.026,299.5
2019-08-13T01:32:14,42.805,6.029,-0.003,-0.002,-0.042,100.0,105.0,98.0,13.3,1505.4,324.1,-0.7,1.8,2470.014,13.34,0.003,236.3
2019-08-13T01:35:15,42.805,6.029,-0.015,-0.005,-0.035,100.0,105.0,97.0,13.3,1505.4,326.0,-0.7,1.8,2470.009,13.34,0.015,251.6
2019-08-13T01:38:16,42.805,6.029,-0.034,-0.017,-0.069,100.0,107.0,97.0,13.4,1505.4,325.8,-0.7,1.9,2470.023,13.34,0.038,243.4
2019-08-13T01:41:17,42.805,6.029,-0.061,-0.004,-0.077,100.0,105.0,98.0,13.4,1505.4,327.1,-0.7,1.9,2469.975,13.34,0.061,266.3
2019-08-13T01:44:18,42.805,6.029,-0.047,-0.017,-0.092,101.0,106.0,96.0,13.4,1505.4,323.3,-0.7,1.9,2469.987,13.34,0.049,250.1
2019-08-13T01:47:19,42.805,6.029,-0.072,-0.014,-0.121,101.0,104.0,96.0,13.4,1505.4,325.4,-0.7,1.9,2470.006,13.34,0.073,259.0
2019-08-13T01:50:20,42.805,6.029,-0.087,-0.005,-0.086,101.0,104.0,98.0,13.3,1505.4,324.6,-0.7,1.8,2470.028,13.34,0.087,266.7
2019-08-13T01:53:21,42.805,6.029,-0.053,0.0,-0.055,100.0,105.0,96.0,13.4,1505.4,328.3,-0.7,1.8,2469.972,13.34,0.053,270.0
2019-08-13T01:56:22,42.805,6.029,-0.017,-0.008,-0.041,101.0,107.0,98.0,13.4,1505.4,323.5,-0.7,1.8,2470.048,13.34,0.018,244.8
2019-08-13T01:59:23,42.805,6.029,-0.007,-0.016,-0.016,102.0,105.0,98.0,13.4,1505.4,324.7,-0.7,1.8,2470.013,13.34,0.017,203.6
2019-08-13T02:02:24,42.805,6.029,0.01,0.008,-0.005,101.0,105.0,98.0,13.3,1505.4,326.1,-0.7,1.9,2470.027,13.34,0.012,51.3
2019-08-13T02:05:25,42.805,6.029,0.032,0.003,0.005,101.0,106.0,97.0,13.4,1505.4,327.2,-0.7,1.8,2470.043,13.34,0.032,84.6
2019-08-13T02:08:26,42.805,6.029,-0.008,0.021,-0.026,101.0,105.0,98.0,13.4,1505.4,322.8,-0.7,1.8,2470.034,13.34,0.022,339.1
2019-08-13T02:11:27,42.805,6.029,0.004,0.035,-0.005,101.0,105.0,97.0,13.4,1505.4,323.5,-0.7,1.8,2470.005,13.34,0.035,6.5
2019-08-13T02:14:28,42.805,6.029,-0.006,-0.012,-0.001,100.0,106.0,98.0,13.4,1505.4,327.2,-0.7,1.8,2470.025,13.34,0.013,206.6
2019-08-13T02:17:29,42.805,6.029,0.003,-0.008,-0.022,100.0,105.0,98.0,13.4,1505.4,323.7,-0.7,1.9,2470.013,13.34,0.008,159.4
2019-08-13T02:20:30,42.805,6.029,0.046,-0.002,0.004,101.0,104.0,97.0,13.4,1505.4,327.8,-0.7,1.8,2470.003,13.34,0.046,92.5
2019-08-13T02:23:31,42.805,6.029,0.029,-0.003,-0.028,100.0,106.0,98.0,13.4,1505.4,326.8,-0.7,1.8,2470.063,13.34,0.029,95.9
2019-08-13T02:26:32,42.805,6.029,0.013,0.029,-0.027,99.0,106.0,98.0,13.4,1505.4,323.3,-0.7,1.8,2470.013,13.34,0.031,24.1
2019-08-13T02:29:33,42.805,6.029,0.01,-0.013,-0.025,102.0,106.0,98.0,13.3,1505.3,325.0,-0.7,1.8,2470.035,13.33,0.016,142.4
2019-08-13T02:32:34,42.805,6.029,-0.002,0.009,-0.003,100.0,105.0,98.0,13.4,1505.4,326.3,-0.7,1.8,2470.02,13.34,0.009,347.5
2019-08-13T02:35:35,42.805,6.029,-0.007,-0.025,-0.059,101.0,104.0,98.0,13.3,1505.3,327.3,-0.7,1.8,2470.039,13.33,0.025,195.6
2019-08-13T02:38:36,42.805,6.029,-0.016,-0.03,-0.032,100.0,104.0,98.0,13.4,1505.3,326.6,-0.7,1.8,2470.041,13.33,0.034,208.1
2019-08-13T02:41:37,42.805,6.029,-0.069,-0.002,-0.105,101.0,103.0,98.0,13.4,1505.3,326.3,-0.7,1.8,2470.032,13.33,0.069,268.3
2019-08-13T02:44:38,42.805,6.029,0.008,-0.012,-0.016,100.0,103.0,99.0,13.3,1505.3,326.7,-0.7,1.8,2470.014,13.33,0.014,146.3
2019-08-13T02:47:39,42.805,6.029,-0.018,-0.031,-0.018,101.0,105.0,98.0,13.4,1505.3,325.1,-0.8,1.8,2470.022,13.33,0.035,210.1
2019-08-13T02:50:40,42.805,6.029,-0.113,-0.037,-0.115,101.0,104.0,98.0,13.4,1505.3,325.3,-0.7,1.8,2470.035,13.33,0.118,251.9
2019-08-13T02:53:41,42.805,6.029,-0.026,-0.01,-0.042,102.0,102.0,97.0,13.4,1505.3,326.5,-0.7,1.8,2470.026,13.33,0.027,249.0
2019-08-13T02:56:42,42.805,6.029,0.0,-0.013,-0.002,101.0,103.0,99.0,13.4,1505.3,326.2,-0.7,1.8,2470.032,13.33,0.013,180.0
2019-08-13T02:59:43,42.805,6.029,-0.005,-0.01,-0.039,101.0,104.0,99.0,13.4,1505.3,323.6,-0.7,1.9,2470.07,13.33,0.011,206.6
2019-08-13T03:02:44,42.805,6.029,0.005,-0.008,-0.024,101.0,104.0,98.0,13.4,1505.3,325.8,-0.7,1.9,2470.026,13.33,0.009,148.0
2019-08-13T03:05:45,42.805,6.029,0.007,0.009,-0.003,101.0,103.0,99.0,13.3,1505.3,325.6,-0.7,1.8,2470.017,13.33,0.011,37.9
2019-08-13T03:08:46,42.805,6.029,0.0,-0.029,-0.031,101.0,104.0,98.0,13.4,1505.3,325.4,-0.7,1.8,2470.085,13.33,0.028,180.0
2019-08-13T03:11:47,42.805,6.029,0.0,-0.015,-0.025,101.0,103.0,100.0,13.4,1505.3,327.6,-0.7,1.8,2470.0,13.33,0.015,180.0
2019-08-13T03:14:48,42.805,6.029,0.015,-0.003,0.004,100.0,102.0,99.0,13.4,1505.3,325.4,-0.7,1.8,2470.048,13.33,0.015,101.3
2019-08-13T03:17:49,42.805,6.029,0.018,-0.025,0.01,101.0,104.0,98.0,13.3,1505.3,324.9,-0.7,1.8,2470.084,13.33,0.03,144.2
2019-08-13T03:20:50,42.805,6.029,-0.028,-0.001,-0.029,103.0,102.0,98.0,13.3,1505.3,325.0,-0.7,1.8,2470.06,13.33,0.028,268.0
2019-08-13T03:23:51,42.805,6.029,-0.05,-0.008,-0.07,100.0,104.0,98.0,13.4,1505.3,326.6,-0.7,1.8,2470.063,13.33,0.05,260.9
2019-08-13T03:26:52,42.805,6.029,-0.007,-0.01,-0.025,102.0,103.0,98.0,13.4,1505.3,323.8,-0.7,1.8,2470.038,13.33,0.012,215.0
2019-08-13T03:29:53,42.805,6.029,-0.037,-0.013,-0.08,100.0,103.0,99.0,13.4,1505.3,325.4,-0.7,1.8,2470.082,13.33,0.039,250.6
2019-08-13T03:32:54,42.805,6.029,-0.01,-0.014,-0.025,101.0,103.0,99.0,13.4,1505.3,325.9,-0.7,1.9,2470.065,13.33,0.017,215.5
2019-08-13T03:35:55,42.805,6.029,0.013,-0.011,0.003,102.0,104.0,98.0,13.4,1505.3,323.3,-0.7,1.8,2470.105,13.33,0.017,130.2
2019-08-13T03:38:56,42.805,6.029,-0.034,-0.015,-0.056,102.0,103.0,98.0,13.4,1505.3,327.7,-0.7,1.9,2470.071,13.33,0.037,246.2
2019-08-13T03:41:57,42.805,6.029,0.014,0.001,-0.02,101.0,104.0,98.0,13.4,1505.3,327.1,-0.7,1.8,2470.038,13.33,0.014,85.9
2019-08-13T03:44:58,42.805,6.029,-0.001,-0.015,-0.032,102.0,102.0,98.0,13.3,1505.3,323.9,-0.7,1.9,2470.052,13.33,0.015,183.8
2019-08-13T03:47:59,42.805,6.029,-0.008,0.008,-0.008,102.0,102.0,99.0,13.4,1505.3,325.8,-0.7,1.8,2470.021,13.33,0.011,315.0
2019-08-13T03:51:00,42.805,6.029,-0.036,-0.009,-0.047,101.0,105.0,99.0,13.4,1505.3,324.7,-0.7,1.8,2470.085,13.33,0.037,256.0
2019-08-13T03:54:01,42.805,6.029,-0.004,0.013,0.01,102.0,103.0,98.0,13.4,1505.3,328.4,-0.7,1.8,2470.079,13.33,0.013,342.9
2019-08-13T03:57:02,42.805,6.029,0.016,0.001,0.017,100.0,104.0,98.0,13.4,1505.3,324.5,-0.7,1.8,2470.091,13.33,0.016,86.4
2019-08-13T04:00:03,42.805,6.029,-0.01,0.012,-0.03,101.0,105.0,98.0,13.4,1505.3,325.4,-0.7,1.8,2470.066,13.33,0.015,320.2
2019-08-13T04:03:04,42.805,6.029,0.023,-0.006,0.0,102.0,105.0,99.0,13.4,1505.3,323.0,-0.7,1.8,2470.076,13.33,0.023,104.6
2019-08-13T04:06:05,42.805,6.029,-0.042,-0.006,-0.05,102.0,103.0,99.0,13.3,1505.3,326.4,-0.7,1.8,2470.071,13.33,0.042,261.9
2019-08-13T04:09:06,42.805,6.029,-0.004,0.003,-0.035,102.0,104.0,97.0,13.4,1505.3,323.2,-0.7,1.8,2470.02,13.33,0.005,306.9
2019-08-13T04:12:07,42.805,6.029,-0.032,0.005,-0.042,101.0,105.0,98.0,13.4,1505.3,328.1,-0.7,1.8,2470.093,13.33,0.032,278.9
2019-08-13T04:15:08,42.805,6.029,-0.033,0.002,-0.04,101.0,105.0,99.0,13.4,1505.3,324.7,-0.7,1.8,2470.088,13.33,0.033,273.5
2019-08-13T04:18:09,42.805,6.029,0.001,0.0,-0.022,101.0,105.0,98.0,13.4,1505.3,325.1,-0.7,1.8,2470.111,13.33,0.001,90.0
2019-08-13T04:21:10,42.805,6.029,0.002,-0.014,-0.017,102.0,105.0,98.0,13.4,1505.3,327.9,-0.7,1.8,2470.05,13.33,0.014,171.9
2019-08-13T04:24:11,42.805,6.029,-0.022,-0.001,-0.027,101.0,106.0,99.0,13.4,1505.3,327.0,-0.7,1.8,2470.102,13.33,0.022,267.4
2019-08-13T04:27:12,42.805,6.029,-0.013,0.02,-0.002,102.0,105.0,99.0,13.3,1505.3,327.8,-0.7,1.9,2470.094,13.33,0.023,327.0
2019-08-13T04:30:13,42.805,6.029,0.011,-0.014,-0.034,103.0,103.0,98.0,13.3,1505.3,326.6,-0.8,1.8,2470.096,13.33,0.017,141.8
2019-08-13T04:33:14,42.805,6.029,-0.029,0.002,-0.037,100.0,103.0,99.0,13.4,1505.3,326.7,-0.7,1.9,2470.128,13.33,0.029,273.9
2019-08-13T04:36:15,42.805,6.029,0.002,0.022,-0.005,101.0,104.0,98.0,13.4,1505.3,326.0,-0.7,1.9,2470.093,13.33,0.022,5.2
2019-08-13T04:39:16,42.805,6.029,-0.006,0.019,0.0,102.0,107.0,99.0,13.3,1505.3,324.4,-0.7,1.9,2470.092,13.33,0.019,342.5
2019-08-13T04:42:17,42.805,6.029,-0.031,-0.007,-0.055,101.0,105.0,99.0,13.3,1505.3,324.7,-0.7,1.8,2470.096,13.33,0.031,257.3
2019-08-13T04:45:18,42.805,6.029,-0.024,0.0,-0.035,101.0,105.0,98.0,13.3,1505.3,327.0,-0.7,1.8,2470.081,13.33,0.024,270.0
2019-08-13T04:48:19,42.805,6.029,-0.033,-0.002,-0.033,103.0,105.0,98.0,13.4,1505.3,325.2,-0.7,1.8,2470.098,13.33,0.033,266.5
2019-08-13T04:51:20,42.805,6.029,-0.043,0.016,-0.034,104.0,106.0,98.0,13.4,1505.3,328.2,-0.7,1.9,2470.098,13.33,0.045,290.4
2019-08-13T04:54:21,42.805,6.029,-0.042,-0.021,-0.044,102.0,107.0,98.0,13.3,1505.3,327.6,-0.7,1.8,2470.112,13.33,0.046,243.4
2019-08-13T04:57:22,42.805,6.029,-0.017,-0.018,-0.083,100.0,106.0,98.0,13.4,1505.3,322.8,-0.7,1.8,2470.116,13.33,0.024,223.4
2019-08-13T05:00:23,42.805,6.029,-0.025,0.0,-0.023,102.0,105.0,99.0,13.4,1505.3,327.1,-0.7,1.9,2470.046,13.33,0.025,270.0
2019-08-13T05:03:24,42.805,6.029,-0.04,-0.001,-0.026,102.0,107.0,99.0,13.4,1505.3,324.5,-0.7,1.8,2470.075,13.33,0.04,268.6
2019-08-13T05:06:25,42.805,6.029,-0.053,-0.001,-0.056,102.0,105.0,98.0,13.3,1505.3,324.7,-0.7,1.9,2470.116,13.33,0.053,268.9
2019-08-13T05:09:26,42.805,6.029,-0.023,0.0,-0.028,103.0,106.0,98.0,13.4,1505.3,325.9,-0.7,1.8,2470.124,13.33,0.023,270.0
2019-08-13T05:12:27,42.805,6.029,-0.005,-0.009,-0.01,101.0,105.0,99.0,13.4,1505.3,324.3,-0.7,1.9,2470.122,13.33,0.01,209.1
2019-08-13T05:15:28,42.805,6.029,-0.002,-0.005,-0.001,103.0,104.0,99.0,13.4,1505.3,328.0,-0.7,1.8,2470.102,13.33,0.005,201.8
2019-08-13T05:18:29,42.805,6.029,-0.016,-0.016,-0.06,101.0,105.0,98.0,13.3,1505.3,324.2,-0.7,1.9,2470.057,13.33,0.022,225.0
2019-08-13T05:21:30,42.805,6.029,-0.031,-0.006,-0.032,102.0,105.0,99.0,13.4,1505.3,326.5,-0.7,1.8,2470.077,13.33,0.031,259.0
2019-08-13T05:24:31,42.805,6.029,-0.045,0.008,-0.079,101.0,105.0,98.0,13.4,1505.3,324.8,-0.7,1.8,2470.129,13.33,0.045,280.1
2019-08-13T05:27:32,42.805,6.029,-0.06,0.006,-0.042,102.0,105.0,98.0,13.4,1505.3,327.5,-0.7,1.8,2470.105,13.33,0.06,275.7
2019-08-13T05:30:33,42.805,6.029,-0.085,0.003,-0.098,101.0,104.0,99.0,13.4,1505.3,326.8,-0.8,1.9,2470.132,13.33,0.085,272.0
2019-08-13T05:33:34,42.805,6.029,-0.023,0.002,-0.046,102.0,105.0,98.0,13.4,1505.3,327.4,-0.7,1.8,2470.152,13.33,0.023,275.0
2019-08-13T05:36:35,42.805,6.029,-0.008,0.0,0.011,101.0,105.0,99.0,13.3,1505.3,324.7,-0.7,1.8,2470.11,13.33,0.008,270.0
2019-08-13T05:39:36,42.805,6.029,-0.012,0.012,-0.01,102.0,104.0,98.0,13.4,1505.3,322.8,-0.7,1.8,2470.106,13.33,0.016,315.0
2019-08-13T05:42:37,42.805,6.029,-0.006,-0.009,-0.022,102.0,105.0,97.0,13.3,1505.3,322.8,-0.6,1.8,2470.086,13.33,0.01,213.7
2019-08-13T05:45:38,42.805,6.029,-0.013,0.001,-0.036,102.0,103.0,97.0,13.4,1505.3,322.9,-0.7,1.8,2470.089,13.33,0.013,274.4
2019-08-13T05:48:39,42.805,6.029,-0.04,-0.009,-0.067,103.0,105.0,98.0,13.4,1505.3,327.1,-0.7,1.8,2470.115,13.33,0.041,257.3
2019-08-13T05:51:40,42.805,6.029,-0.014,0.003,0.005,103.0,104.0,98.0,13.4,1505.3,324.5,-0.7,1.8,2470.093,13.33,0.014,282.1
2019-08-13T05:54:41,42.805,6.029,-0.009,-0.002,0.013,102.0,104.0,99.0,13.4,1505.3,325.5,-0.7,1.8,2470.091,13.33,0.009,257.5
2019-08-13T05:57:42,42.805,6.029,0.002,-0.006,-0.03,100.0,105.0,98.0,13.4,1505.3,328.0,-0.7,1.8,2470.112,13.33,0.006,161.6
2019-08-13T06:00:43,42.805,6.029,-0.013,-0.013,0.004,102.0,105.0,97.0,13.4,1505.3,324.8,-0.7,1.8,2470.12,13.33,0.018,225.0
2019-08-13T06:03:44,42.805,6.029,-0.043,-0.001,-0.012,102.0,104.0,98.0,13.4,1505.3,327.7,-0.7,1.8,2470.105,13.33,0.043,268.7
2019-08-13T06:06:45,42.805,6.029,-0.031,0.0,-0.055,103.0,104.0,99.0,13.3,1505.3,322.8,-0.7,1.8,2470.066,13.33,0.03,270.0
2019-08-13T06:09:46,42.805,6.029,-0.019,0.008,0.0,102.0,104.0,98.0,13.4,1505.3,324.7,-0.7,1.8,2470.104,13.33,0.02,292.8
2019-08-13T06:12:47,42.805,6.029,-0.029,-0.011,-0.018,100.0,105.0,98.0,13.4,1505.3,325.6,-0.7,1.8,2470.156,13.33,0.031,249.2
2019-08-13T06:15:48,42.805,6.029,-0.009,-0.003,-0.009,102.0,105.0,99.0,13.4,1505.3,325.5,-0.7,1.8,2470.129,13.33,0.009,251.6
2019-08-13T06:18:49,42.805,6.029,-0.035,0.0,0.009,101.0,105.0,99.0,13.4,1505.3,322.4,-0.7,1.8,2470.137,13.33,0.035,270.0
2019-08-13T06:21:50,42.805,6.029,-0.046,-0.001,-0.039,101.0,104.0,99.0,13.4,1505.3,324.3,-0.7,1.8,2470.099,13.33,0.046,268.8
2019-08-13T06:24:51,42.805,6.029,-0.018,-0.001,-0.028,101.0,105.0,98.0,13.4,1505.3,328.1,-0.7,1.8,2470.071,13.33,0.018,266.8
2019-08-13T06:27:52,42.805,6.029,-0.036,-0.016,-0.056,103.0,104.0,98.0,13.3,1505.3,325.3,-0.7,1.8,2470.094,13.33,0.039,246.0
2019-08-13T06:30:53,42.805,6.029,-0.028,-0.017,-0.01,104.0,103.0,98.0,13.3,1505.3,324.0,-0.7,1.8,2470.107,13.33,0.032,238.7
2019-08-13T06:33:54,42.805,6.029,-0.012,0.013,0.007,101.0,104.0,100.0,13.4,1505.3,326.2,-0.7,1.9,2470.11,13.33,0.017,317.3
2019-08-13T06:36:55,42.805,6.029,-0.014,0.004,-0.022,103.0,104.0,99.0,13.4,1505.3,326.5,-0.7,1.8,2470.053,13.33,0.014,285.9
2019-08-13T06:39:56,42.805,6.029,-0.022,-0.015,-0.024,99.0,106.0,100.0,13.3,1505.3,322.8,-0.7,1.8,2470.114,13.33,0.026,235.7
2019-08-13T06:42:57,42.805,6.029,-0.042,-0.015,-0.073,101.0,104.0,99.0,13.4,1505.3,327.4,-0.7,1.8,2470.092,13.33,0.044,250.4
2019-08-13T06:45:58,42.805,6.029,-0.028,0.0,-0.035,103.0,104.0,98.0,13.4,1505.3,323.6,-0.7,1.8,2470.094,13.33,0.028,270.0
2019-08-13T06:48:59,42.805,6.029,0.002,0.006,-0.033,102.0,104.0,98.0,13.4,1505.3,325.2,-0.7,1.8,2470.112,13.33,0.006,18.4
2019-08-13T06:52:00,42.805,6.029,-0.014,-0.012,-0.064,103.0,104.0,98.0,13.3,1505.3,326.0,-0.7,1.9,2470.067,13.33,0.018,229.4
2019-08-13T06:55:01,42.805,6.029,-0.018,-0.003,-0.011,101.0,104.0,99.0,13.3,1505.3,326.1,-0.7,1.9,2470.121,13.33,0.018,260.5
2019-08-13T06:58:02,42.805,6.029,-0.054,0.003,-0.042,102.0,105.0,98.0,13.3,1505.3,325.3,-0.7,1.8,2470.058,13.33,0.054,273.2
2019-08-13T07:01:03,42.805,6.029,-0.016,0.006,0.003,100.0,103.0,99.0,13.4,1505.3,326.6,-0.8,1.8,2470.107,13.33,0.017,290.6
2019-08-13T07:04:04,42.805,6.029,-0.007,-0.014,-0.018,103.0,103.0,98.0,13.4,1505.3,323.2,-0.8,1.8,2470.096,13.33,0.015,206.6
2019-08-13T07:07:05,42.805,6.029,-0.032,0.01,-0.045,101.0,103.0,98.0,13.3,1505.3,324.3,-0.7,1.8,2470.101,13.33,0.033,287.4
2019-08-13T07:10:06,42.805,6.029,-0.023,0.01,-0.002,102.0,104.0,98.0,13.3,1505.3,325.0,-0.7,1.8,2470.082,13.33,0.025,293.5
2019-08-13T07:13:07,42.805,6.029,-0.06,-0.012,-0.075,102.0,103.0,98.0,13.4,1505.3,326.9,-0.8,1.8,2470.123,13.33,0.061,258.7
2019-08-13T07:16:08,42.805,6.029,-0.022,0.003,-0.03,102.0,104.0,99.0,13.4,1505.3,326.6,-0.7,1.9,2470.059,13.33,0.022,277.8
2019-08-13T07:19:09,42.805,6.029,-0.024,-0.003,-0.027,102.0,105.0,98.0,13.4,1505.3,326.9,-0.7,1.8,2470.108,13.33,0.024,262.9
2019-08-13T07:22:10,42.805,6.029,-0.021,-0.007,-0.032,101.0,105.0,99.0,13.3,1505.3,327.0,-0.7,1.9,2470.088,13.33,0.022,251.6
2019-08-13T07:25:11,42.805,6.029,-0.051,-0.012,-0.043,101.0,104.0,98.0,13.3,1505.3,324.8,-0.7,1.8,2470.052,13.33,0.052,256.8
2019-08-13T07:28:12,42.805,6.029,0.011,0.009,-0.016,99.0,104.0,98.0,13.4,1505.3,323.4,-0.7,1.8,2470.088,13.33,0.014,50.7
2019-08-13T07:31:13,42.805,6.029,-0.001,0.003,-0.038,102.0,102.0,97.0,13.4,1505.3,326.2,-0.7,1.8,2470.03,13.33,0.003,341.6
2019-08-13T07:34:14,42.805,6.029,-0.033,0.022,0.0,102.0,105.0,98.0,13.4,1505.3,326.6,-0.7,1.8,2470.077,13.33,0.039,303.7
2019-08-13T07:37:15,42.805,6.029,0.005,-0.006,-0.018,101.0,102.0,99.0,13.4,1505.3,323.8,-0.7,1.8,2470.026,13.33,0.007,140.2
2019-08-13T07:40:16,42.805,6.029,-0.025,0.001,-0.028,101.0,105.0,97.0,13.3,1505.3,326.6,-0.7,1.9,2470.103,13.33,0.025,272.3
2019-08-13T07:43:17,42.805,6.029,-0.03,-0.01,-0.011,101.0,105.0,97.0,13.3,1505.3,326.9,-0.7,1.9,2470.111,13.33,0.031,251.6
2019-08-13T07:46:18,42.805,6.029,-0.046,0.0,0.001,100.0,104.0,99.0,13.4,1505.3,325.8,-0.7,1.8,2470.072,13.33,0.046,270.0
2019-08-13T07:49:19,42.805,6.029,-0.048,-0.002,-0.044,102.0,104.0,97.0,13.4,1505.3,327.7,-0.7,1.8,2470.069,13.33,0.048,267.6
2019-08-13T07:52:20,42.805,6.029,-0.036,-0.011,-0.032,102.0,103.0,98.0,13.4,1505.3,324.2,-0.7,1.8,2470.079,13.33,0.037,253.0
2019-08-13T07:55:21,42.805,6.029,-0.01,0.016,-0.035,101.0,104.0,98.0,13.4,1505.3,325.5,-0.7,1.9,2470.051,13.33,0.018,328.0
2019-08-13T07:58:22,42.805,6.029,-0.011,-0.005,-0.003,101.0,104.0,98.0,13.4,1505.3,328.1,-0.7,1.8,2470.093,13.33,0.012,245.6
2019-08-13T08:01:23,42.805,6.029,0.015,0.013,0.003,102.0,104.0,98.0,13.4,1505.3,325.9,-0.7,1.8,2470.055,13.33,0.019,49.1
2019-08-13T08:04:24,42.805,6.029,-0.026,-0.014,-0.041,102.0,103.0,96.0,13.4,1505.3,324.1,-0.7,1.8,2470.061,13.33,0.029,241.7
2019-08-13T08:07:25,42.805,6.029,-0.015,0.018,0.0,101.0,105.0,99.0,13.3,1505.3,326.3,-0.7,1.8,2470.072,13.33,0.023,320.2
2019-08-13T08:10:26,42.805,6.029,-0.039,0.013,-0.012,102.0,103.0,98.0,13.4,1505.3,328.0,-0.7,1.8,2470.051,13.33,0.041,288.4
2019-08-13T08:13:27,42.805,6.029,-0.011,0.021,0.012,103.0,104.0,97.0,13.4,1505.3,327.2,-0.7,1.8,2470.101,13.33,0.023,332.4
2019-08-13T08:16:28,42.805,6.029,-0.012,0.002,0.002,102.0,105.0,99.0,13.4,1505.3,324.5,-0.7,1.8,2470.062,13.33,0.012,279.5
2019-08-13T08:19:29,42.805,6.029,0.001,0.008,-0.026,102.0,103.0,98.0,13.3,1505.3,323.6,-0.7,1.8,2470.045,13.33,0.008,7.1
2019-08-13T08:22:30,42.805,6.029,-0.044,-0.006,-0.018,102.0,104.0,99.0,13.4,1505.3,324.9,-0.7,1.9,2470.046,13.33,0.044,262.2
2019-08-13T08:25:31,42.805,6.029,-0.046,0.027,-0.035,101.0,104.0,98.0,13.4,1505.3,326.4,-0.7,1.8,2470.062,13.33,0.053,300.4
2019-08-13T08:28:32,42.805,6.029,-0.057,-0.005,-0.062,100.0,105.0,99.0,13.4,1505.3,326.7,-0.7,1.9,2470.08,13.33,0.057,265.0
2019-08-13T08:31:33,42.805,6.029,-0.001,0.02,-0.008,102.0,105.0,98.0,13.4,1505.3,324.8,-0.7,1.8,2470.065,13.33,0.02,357.1
2019-08-13T08:34:34,42.805,6.029,-0.02,0.005,-0.025,102.0,105.0,99.0,13.4,1505.3,328.2,-0.7,1.8,2470.025,13.33,0.02,284.0
2019-08-13T08:37:35,42.805,6.029,-0.011,0.001,-0.054,101.0,105.0,99.0,13.3,1505.3,323.1,-0.7,1.8,2470.05,13.33,0.011,275.2
2019-08-13T08:40:36,42.805,6.029,0.012,0.005,0.024,102.0,105.0,98.0,13.3,1505.3,327.4,-0.7,1.8,2470.08,13.33,0.013,67.4
2019-08-13T08:43:37,42.805,6.029,-0.027,0.013,-0.041,101.0,104.0,99.0,13.4,1505.3,324.6,-0.7,1.9,2470.038,13.33,0.029,295.7
2019-08-13T08:46:38,42.805,6.029,-0.016,-0.001,-0.036,103.0,104.0,98.0,13.3,1505.3,323.7,-0.7,1.9,2470.03,13.33,0.016,266.4
2019-08-13T08:49:39,42.805,6.029,-0.018,0.007,-0.06,101.0,105.0,98.0,13.4,1505.3,326.4,-0.7,1.8,2470.044,13.33,0.019,291.2
2019-08-13T08:52:40,42.805,6.029,-0.053,0.012,-0.035,102.0,105.0,98.0,13.4,1505.3,323.0,-0.7,1.8,2470.06,13.33,0.054,282.8
2019-08-13T08:55:41,42.805,6.029,-0.03,0.015,-0.043,103.0,104.0,98.0,13.4,1505.3,326.3,-0.7,1.8,2470.02,13.33,0.033,296.6
2019-08-13T08:58:42,42.805,6.029,-0.039,0.012,-0.042,102.0,104.0,98.0,13.4,1505.3,325.5,-0.7,1.8,2470.04,13.33,0.04,287.1
2019-08-13T09:01:43,42.805,6.029,-0.033,0.001,-0.038,102.0,104.0,98.0,13.4,1505.3,327.6,-0.7,1.9,2470.033,13.33,0.033,271.7
2019-08-13T09:04:44,42.805,6.029,-0.012,-0.006,0.015,100.0,105.0,98.0,13.4,1505.3,322.9,-0.8,1.9,2470.026,13.33,0.013,243.4
2019-08-13T09:07:45,42.805,6.029,0.005,0.016,0.013,101.0,104.0,98.0,13.4,1505.3,324.0,-0.7,1.8,2469.998,13.33,0.016,17.4
2019-08-13T09:10:46,42.805,6.029,-0.027,-0.011,-0.003,102.0,105.0,98.0,13.3,1505.3,325.2,-0.7,1.8,2470.008,13.33,0.029,247.8
2019-08-13T09:13:47,42.805,6.029,-0.016,0.012,0.019,104.0,106.0,99.0,13.4,1505.3,326.3,-0.7,1.8,2470.0,13.33,0.02,306.9
2019-08-13T09:16:48,42.805,6.029,-0.005,0.007,-0.029,102.0,107.0,99.0,13.4,1505.3,327.9,-0.7,1.8,2469.998,13.33,0.008,324.5
2019-08-13T09:19:49,42.805,6.029,-0.04,0.008,-0.041,102.0,108.0,99.0,13.4,1505.3,325.5,-0.7,1.8,2470.033,13.33,0.04,281.3
2019-08-13T09:22:50,42.805,6.029,-0.027,0.001,-0.023,101.0,107.0,98.0,13.4,1505.3,324.3,-0.7,1.8,2470.032,13.33,0.027,272.1
2019-08-13T09:25:51,42.805,6.029,-0.017,0.011,-0.021,101.0,107.0,99.0,13.4,1505.3,328.4,-0.7,1.9,2469.999,13.33,0.02,302.9
2019-08-13T09:28:52,42.805,6.029,-0.051,0.0,-0.043,102.0,105.0,97.0,13.4,1505.3,327.0,-0.7,1.8,2469.989,13.33,0.051,270.0
2019-08-13T09:31:53,42.805,6.029,0.0,0.001,-0.037,102.0,104.0,98.0,13.4,1505.3,325.5,-0.7,1.8,2470.057,13.33,0.001,0.0